CW4645 Weather Reports


time (UTC)temp
F
wind
direction
speed
knots
gust
knots
rain 1hr
in
rain 24hr
in
rain mn
in
humidity
%
barometer
mb
20260506091321 61 40 0.0 0.0 0.00 0.00 0.00 86 1013.5
20260506085843 61 40 0.0 0.0 0.00 0.00 0.00 85 1013.5
20260506084332 61 40 0.0 0.0 0.00 0.00 0.00 85 1013.6
20260506082818 62 40 0.0 0.0 0.00 0.00 0.00 84 1013.8
20260506081337 62 40 0.0 0.0 0.00 0.00 0.00 83 1014.0
20260506072816 62 40 0.0 0.0 0.00 0.00 0.00 82 1013.8
20260506071358 63 40 0.0 1.7 0.00 0.00 0.00 81 1013.7
20260506061357 64 15 0.0 3.5 0.00 0.00 0.00 79 1013.8
20260506051352 64 32 0.9 3.5 0.00 0.00 0.00 76 1014.0
20260506044332 65 5 0.9 3.5 0.00 0.00 0.00 76 1014.4
20260506042840 65 22 1.7 3.5 0.00 0.00 0.00 76 1014.3
20260506041333 65 28 0.9 3.5 0.00 0.00 0.00 75 1014.4
20260506035835 66 5 2.6 7.0 0.00 0.00 0.00 74 1014.6
20260506034325 66 49 0.9 3.5 0.00 0.00 0.00 73 1014.6
20260506032853 67 74 2.6 5.2 0.00 0.00 0.00 72 1014.2
20260506031338 67 17 2.6 4.3 0.00 0.00 0.00 70 1014.1
20260506025832 68 342 2.6 6.1 0.00 0.00 0.00 68 1014.1
20260506024333 68 42 2.6 5.2 0.00 0.00 0.00 67 1014.0
20260506022831 69 3 2.6 4.3 0.00 0.00 0.00 66 1014.2
20260506021324 70 26 1.7 5.2 0.00 0.00 0.00 65 1014.3
20260506015836 70 22 0.9 7.8 0.00 0.00 0.00 64 1014.1
20260506014333 70 21 1.7 4.3 0.00 0.00 0.00 64 1013.9
20260506012819 71 355 0.0 3.5 0.00 0.00 0.00 61 1013.6
20260506011330 71 30 0.9 3.5 0.00 0.00 0.00 61 1013.4
20260506005840 68 34 0.0 0.0 0.00 0.00 0.00 61 1013.0
20260506004356 69 34 0.0 0.0 0.00 0.00 0.00 63 1012.6
20260506002847 71 34 0.0 0.0 0.00 0.00 0.00 57 1012.5
20260506001330 73 34 0.0 0.0 0.00 0.00 0.00 52 1012.5
20260505235821 74 34 0.0 0.0 0.00 0.00 0.00 49 1012.5
20260505234433 75 34 0.0 0.0 0.00 0.00 0.00 47 1012.4
20260505232923 76 34 0.0 0.9 0.00 0.00 0.00 47 1012.5
20260505231419 77 34 0.0 3.5 0.00 0.00 0.00 46 1012.5
20260505225933 77 16 0.0 0.9 0.00 0.00 0.00 45 1012.6
20260505224448 77 27 0.0 0.9 0.00 0.00 0.00 45 1012.5
20260505222932 78 22 0.0 2.6 0.00 0.00 0.00 45 1012.5
20260505221436 79 20 0.0 2.6 0.00 0.00 0.00 44 1012.5
20260505215923 79 21 0.0 3.5 0.00 0.00 0.00 44 1012.6
20260505214439 80 72 0.0 5.2 0.00 0.00 0.00 44 1012.8
20260505213006 79 350 0.0 4.3 0.00 0.00 0.00 44 1012.9
20260505211434 81 20 0.9 5.2 0.00 0.00 0.00 40 1013.0
20260505205918 81 43 0.0 0.9 0.00 0.00 0.00 45 1013.0
20260505204432 80 25 0.9 4.3 0.00 0.00 0.00 44 1013.2
20260505202924 81 63 0.9 4.3 0.00 0.00 0.00 43 1013.4
20260505201422 81 34 1.7 5.2 0.00 0.00 0.00 41 1013.4
20260505195951 82 65 1.7 5.2 0.00 0.00 0.00 42 1013.5
20260505194444 82 86 0.0 3.5 0.00 0.00 0.00 44 1013.7
20260505192935 81 28 0.0 4.3 0.00 0.00 0.00 42 1014.0
20260505191418 80 132 0.9 5.2 0.00 0.00 0.00 43 1014.4
20260505185951 81 21 0.0 5.2 0.00 0.00 0.00 42 1014.6
20260505184512 81 276 1.7 7.0 0.00 0.00 0.00 41 1015.0
20260505182928 80 49 0.9 3.5 0.00 0.00 0.00 50 1015.1
20260505181428 79 22 0.0 2.6 0.00 0.00 0.00 49 1015.1
20260505175933 81 31 3.5 5.2 0.00 0.00 0.00 46 1014.9
20260505174429 79 55 1.7 6.1 0.00 0.00 0.00 45 1014.9
20260505173009 80 149 0.0 4.3 0.00 0.00 0.00 48 1015.1
20260505171433 78 112 0.9 5.2 0.00 0.00 0.00 47 1015.2
20260505165943 79 15 0.0 2.6 0.00 0.00 0.00 49 1015.5
20260505164426 78 26 0.9 3.5 0.00 0.00 0.00 49 1015.6
20260505162956 77 195 0.0 2.6 0.00 0.00 0.00 54 1015.8
20260505161457 78 40 0.9 3.5 0.00 0.00 0.00 53 1016.1
20260505152949 75 22 0.0 1.7 0.00 0.00 0.00 64 1016.1
20260505151444 73 24 0.0 2.6 0.00 0.00 0.00 63 1016.2
20260505124416 61 32 0.0 0.0 0.00 0.00 0.00 85 1015.8
20260505123011 58 32 0.0 0.0 0.00 0.00 0.00 88 1015.8
20260505121425 57 54 0.0 0.0 0.00 0.00 0.00 89 1015.7
20260505115939 56 54 0.0 0.0 0.00 0.00 0.00 90 1015.5
20260505114425 55 54 0.0 0.0 0.00 0.00 0.00 91 1015.6
20260505112942 54 54 0.0 0.0 0.00 0.00 0.00 91 1015.5
20260505111425 53 54 0.0 0.0 0.00 0.00 0.00 91 1015.5
20260505101442 51 54 0.0 0.0 0.00 0.00 0.00 90 1015.0
20260505095921 52 54 0.0 0.0 0.00 0.00 0.00 90 1014.8
20260505094419 52 54 0.0 0.0 0.00 0.00 0.00 90 1014.7
20260505092923 53 54 0.0 0.0 0.00 0.00 0.00 89 1014.7